Hourly Weather Getafe

Today, 25 September, Friday

Time Temperature Precipitation Wind Pressure Humidity
00:00 +15°C° 0 mm 6 mps 708 mmHg 54%
01:00 +14°C° 0 mm 6 mps 708 mmHg 56%
02:00 +14°C° 0 mm 6 mps 708 mmHg 57%
03:00 +13°C° 0 mm 6 mps 708 mmHg 58%
04:00 +13°C° 0 mm 6 mps 708 mmHg 58%
05:00 +11°C° 0 mm 6 mps 708 mmHg 57%
06:00 +11°C° 0 mm 6 mps 709 mmHg 57%
07:00 +11°C° 0 mm 6 mps 709 mmHg 52%
08:00 +12°C° 0 mm 7 mps 710 mmHg 48%
09:00 +14°C° 0 mm 7 mps 710 mmHg 43%
10:00 +15°C° 0 mm 7 mps 710 mmHg 39%
11:00 +16°C° 0 mm 7 mps 711 mmHg 36%
12:00 +17°C° 0 mm 7 mps 711 mmHg 32%
13:00 +17°C° 0 mm 7 mps 711 mmHg 30%
14:00 +18°C° 0 mm 7 mps 711 mmHg 29%
15:00 +18°C° 0 mm 8 mps 711 mmHg 27%
16:00 +17°C° 0 mm 7 mps 711 mmHg 29%
17:00 +17°C° 0 mm 7 mps 711 mmHg 31%
18:00 +16°C° 0 mm 7 mps 711 mmHg 33%
19:00 +15°C° 0 mm 6 mps 711 mmHg 36%
20:00 +14°C° 0 mm 6 mps 712 mmHg 39%
21:00 +13°C° 0 mm 5 mps 713 mmHg 42%
22:00 +13°C° 0 mm 5 mps 713 mmHg 44%
23:00 +12°C° 0 mm 4 mps 713 mmHg 47%

Tomorrow, 26 September, Saturday

Time Temperature Precipitation Wind Pressure Humidity
00:00 +12°C° 0 mm 4 mps 713 mmHg 49%
01:00 +11°C° 0 mm 3 mps 712 mmHg 50%
02:00 +11°C° 0 mm 3 mps 712 mmHg 52%
03:00 +10°C° 0 mm 3 mps 711 mmHg 53%
04:00 +10°C° 0 mm 2 mps 711 mmHg 54%
05:00 +10°C° 0 mm 2 mps 711 mmHg 56%
06:00 +9°C° 0 mm 2 mps 712 mmHg 57%
07:00 +10°C° 0 mm 2 mps 712 mmHg 53%
08:00 +12°C° 0 mm 2 mps 712 mmHg 49%
09:00 +14°C° 0 mm 2 mps 712 mmHg 45%
10:00 +15°C° 0 mm 2 mps 711 mmHg 41%
11:00 +16°C° 0 mm 2 mps 711 mmHg 38%
12:00 +18°C° 0 mm 2 mps 710 mmHg 34%
13:00 +18°C° 0 mm 3 mps 710 mmHg 34%
14:00 +19°C° 0 mm 4 mps 710 mmHg 33%
15:00 +20°C° 0 mm 4 mps 709 mmHg 33%
16:00 +20°C° 0 mm 4 mps 709 mmHg 35%
17:00 +19°C° 0 mm 4 mps 709 mmHg 37%
18:00 +19°C° 0 mm 4 mps 708 mmHg 40%
19:00 +18°C° 0 mm 4 mps 709 mmHg 42%
20:00 +18°C° 0 mm 4 mps 709 mmHg 44%
21:00 +17°C° 0 mm 4 mps 709 mmHg 46%
22:00 +17°C° 0 mm 4 mps 709 mmHg 49%
23:00 +15°C° 0 mm 4 mps 708 mmHg 52%

Day after tomorrow, 27 September, Sunday

Time Temperature Precipitation Wind Pressure Humidity
00:00 +15°C° 0 mm 4 mps 708 mmHg 55%
01:00 +15°C° 0 mm 4 mps 708 mmHg 57%
02:00 +15°C° 0 mm 4 mps 707 mmHg 60%
03:00 +14°C° 0 mm 4 mps 707 mmHg 62%
04:00 +14°C° 0 mm 4 mps 707 mmHg 63%
05:00 +14°C° 0 mm 3 mps 707 mmHg 65%
06:00 +13°C° 0 mm 3 mps 706 mmHg 66%
07:00 +16°C° 0 mm 3 mps 707 mmHg 61%
08:00 +17°C° 0 mm 4 mps 707 mmHg 56%
09:00 +19°C° 0 mm 4 mps 707 mmHg 50%
10:00 +20°C° 0 mm 5 mps 707 mmHg 46%
11:00 +21°C° 0 mm 6 mps 707 mmHg 43%
12:00 +22°C° 0 mm 6 mps 707 mmHg 39%
13:00 +23°C° 0 mm 6 mps 707 mmHg 38%
14:00 +23°C° 0 mm 6 mps 706 mmHg 36%
15:00 +23°C° 0 mm 6 mps 706 mmHg 35%
16:00 +22°C° 0 mm 6 mps 706 mmHg 38%
17:00 +22°C° 0 mm 5 mps 706 mmHg 40%
18:00 +21°C° 0 mm 4 mps 707 mmHg 43%
19:00 +20°C° 0 mm 4 mps 707 mmHg 45%
20:00 +19°C° 0 mm 4 mps 707 mmHg 47%
21:00 +18°C° 0 mm 3 mps 708 mmHg 49%
22:00 +17°C° 0 mm 3 mps 708 mmHg 51%
23:00 +16°C° 0 mm 3 mps 708 mmHg 53%

28 September, Monday

Time Temperature Precipitation Wind Pressure Humidity
00:00 +15°C° 0 mm 2 mps 708 mmHg 54%
01:00 +15°C° 0 mm 2 mps 708 mmHg 55%
02:00 +14°C° 0 mm 2 mps 708 mmHg 56%
03:00 +14°C° 0 mm 2 mps 708 mmHg 57%
04:00 +13°C° 0 mm 2 mps 708 mmHg 56%
05:00 +13°C° 0 mm 2 mps 708 mmHg 56%
06:00 +12°C° 0 mm 2 mps 708 mmHg 56%
07:00 +14°C° 0 mm 2 mps 708 mmHg 50%
08:00 +15°C° 0 mm 2 mps 708 mmHg 44%
09:00 +16°C° 0 mm 2 mps 708 mmHg 39%
10:00 +17°C° 0 mm 2 mps 708 mmHg 35%
11:00 +20°C° 0 mm 1 mps 708 mmHg 31%
12:00 +21°C° 0 mm 1 mps 708 mmHg 27%
13:00 +22°C° 0 mm 1 mps 708 mmHg 25%
14:00 +22°C° 0 mm 1 mps 708 mmHg 23%
15:00 +23°C° 0 mm 1 mps 707 mmHg 21%
16:00 +22°C° 0 mm 1 mps 707 mmHg 22%
17:00 +20°C° 0 mm 0 mps 707 mmHg 24%
18:00 +19°C° 0 mm 0 mps 707 mmHg 26%
19:00 +19°C° 0 mm 0 mps 708 mmHg 26%
20:00 +20°C° 0 mm 1 mps 708 mmHg 27%
21:00 +20°C° 0 mm 1 mps 708 mmHg 27%
22:00 +20°C° 0 mm 1 mps 708 mmHg 27%
23:00 +19°C° 0 mm 1 mps 708 mmHg 27%

29 September, Tuesday

Time Temperature Precipitation Wind Pressure Humidity
00:00 +19°C° 0 mm 1 mps 708 mmHg 27%
01:00 +19°C° 0 mm 1 mps 708 mmHg 28%
02:00 +18°C° 0 mm 1 mps 707 mmHg 28%
03:00 +18°C° 0 mm 1 mps 707 mmHg 28%
04:00 +18°C° 0 mm 1 mps 707 mmHg 33%
05:00 +16°C° 0 mm 2 mps 707 mmHg 38%
06:00 +16°C° 0 mm 2 mps 707 mmHg 43%
07:00 +17°C° 0 mm 2 mps 707 mmHg 44%
08:00 +18°C° 0 mm 2 mps 708 mmHg 46%
09:00 +19°C° 0 mm 2 mps 708 mmHg 48%
10:00 +21°C° 0 mm 1 mps 708 mmHg 42%
11:00 +23°C° 0 mm 1 mps 708 mmHg 36%
12:00 +24°C° 0 mm 1 mps 708 mmHg 31%
13:00 +25°C° 0 mm 1 mps 707 mmHg 29%
14:00 +26°C° 0 mm 2 mps 707 mmHg 28%
15:00 +27°C° 0 mm 2 mps 707 mmHg 27%
16:00 +26°C° 0 mm 2 mps 707 mmHg 30%
17:00 +25°C° 0 mm 2 mps 707 mmHg 32%
18:00 +24°C° 0 mm 1 mps 706 mmHg 35%
19:00 +23°C° 0 mm 1 mps 707 mmHg 36%
20:00 +23°C° 0 mm 1 mps 707 mmHg 38%
21:00 +22°C° 0 mm 1 mps 707 mmHg 40%
22:00 +22°C° 0 mm 1 mps 707 mmHg 40%
23:00 +21°C° 0 mm 1 mps 707 mmHg 41%

30 September, Wednesday

Time Temperature Precipitation Wind Pressure Humidity
00:00 +21°C° 0 mm 1 mps 707 mmHg 42%
01:00 +20°C° 0 mm 1 mps 706 mmHg 43%
02:00 +19°C° 0 mm 1 mps 706 mmHg 44%
03:00 +19°C° 0 mm 1 mps 706 mmHg 45%
04:00 +18°C° 0 mm 1 mps 706 mmHg 46%
05:00 +18°C° 0 mm 1 mps 706 mmHg 48%
06:00 +16°C° 0 mm 1 mps 706 mmHg 49%
07:00 +19°C° 0 mm 1 mps 706 mmHg 45%
08:00 +20°C° 0 mm 1 mps 706 mmHg 40%
09:00 +22°C° 0 mm 1 mps 706 mmHg 36%
10:00 +23°C° 0 mm 2 mps 706 mmHg 33%
11:00 +24°C° 0 mm 2 mps 706 mmHg 31%
12:00 +26°C° 0 mm 3 mps 706 mmHg 28%
13:00 +26°C° 0 mm 4 mps 705 mmHg 27%
14:00 +27°C° 0 mm 4 mps 705 mmHg 25%
15:00 +27°C° 0 mm 5 mps 704 mmHg 24%
16:00 +26°C° 0 mm 5 mps 704 mmHg 26%
17:00 +25°C° 0 mm 5 mps 704 mmHg 28%
18:00 +23°C° 0 mm 4 mps 704 mmHg 30%
19:00 +22°C° 0 mm 4 mps 704 mmHg 32%
20:00 +22°C° 0 mm 4 mps 704 mmHg 33%
21:00 +21°C° 0 mm 4 mps 705 mmHg 35%
22:00 +20°C° 0 mm 4 mps 704 mmHg 39%
23:00 +19°C° 0 mm 4 mps 704 mmHg 42%
Show more